St. Charles, IL

5:06 PM CDT on June 26, 2017 (GMT -0500)
Saint Charles County Smartt

Weather History for KSET - January, 2013

Change the Weather History Date:

Wednesday, January 2, 2013

  Actual Average (KSTL) Record (KSTL)
Temperature  
Mean Temperature 20 °F -  
Max Temperature 30 °F 38 °F 72 °F (1997)
Min Temperature 10 °F 22 °F -9 °F (1879)
Degree Days  
Heating Degree Days 45    
Moisture  
Dew Point 12 °F    
Average Humidity 76    
Maximum Humidity 92    
Minimum Humidity 54    
Precipitation  
Precipitation 0.00 in - - ()
Sea Level Pressure  
Sea Level Pressure 30.26 in    
Wind  
Wind Speed 3 mph (SSE)    
Max Wind Speed 7 mph    
Max Gust Speed -    
Visibility 8 miles    
Events      
Averages and records for this station are not official NWS values.
T = Trace of Precipitation, MM = Missing Value Source: NWS Daily Summary

Daily Weather History Graph

Daily Weather History Graph

Search for Another Location

Airport or City:

Trip Planner

Search our weather history database for the weather conditions in past years. The results will help you decide how hot, cold, wet, or windy it might be!

Date:

Astronomy

Jan. 02, 2013 Rise Set
Actual Time 7:20 AM CST 4:51 PM CST
Civil Twilight 6:50 AM CST 5:21 PM CST
Nautical Twilight 6:17 AM CST 5:54 PM CST
Astronomical Twilight 5:45 AM CST 6:26 PM CST
Moon 10:20 PM CST (1/2) 10:05 AM CST (1/2)
Length of Visible Light 10h 30m
Length of Day
9h 30m
Waning Gibbous, 75% of the Moon is Illuminated
Jan 2
Waning Gibbous
Jan 4
Last Quarter
Jan 11
New
Jan 18
First Quarter
Jan 26
Full

Hourly Weather History & Observations

Time (CST) Temp. Windchill Dew Point Humidity Pressure Visibility Wind Dir Wind Speed Gust Speed Precip Events Conditions
12:54 AM 12.9 °F 5.2 °F 9.0 °F 84% 30.30 in 8.0 mi SW 4.6 mph - N/A   Clear
1:54 AM 12.0 °F - 7.0 °F 80% 30.29 in 8.0 mi Calm Calm - N/A   Clear
2:54 AM 14.0 °F 6.5 °F 10.0 °F 84% 30.30 in 7.0 mi West 4.6 mph - N/A   Clear
3:54 AM 14.0 °F - 9.0 °F 80% 30.27 in 7.0 mi Calm Calm - N/A   Clear
4:54 AM 12.9 °F 6.9 °F 10.0 °F 88% 30.28 in 6.0 mi West 3.5 mph - N/A   Clear
5:54 AM 12.0 °F 5.9 °F 9.0 °F 88% 30.29 in 6.0 mi WSW 3.5 mph - N/A   Clear
6:54 AM 10.9 °F - 7.0 °F 84% 30.29 in 5.0 mi Calm Calm - N/A   Clear
7:54 AM 10.9 °F - 9.0 °F 92% 30.30 in 4.0 mi Calm Calm - N/A   Clear
8:54 AM 14.0 °F - 10.9 °F 88% 30.29 in 4.0 mi Calm Calm - N/A   Clear
9:54 AM 19.0 °F 13.9 °F 12.9 °F 77% 30.29 in 7.0 mi ESE 3.5 mph - N/A   Clear
10:54 AM 21.9 °F 15.7 °F 12.9 °F 68% 30.28 in 9.0 mi South 4.6 mph - N/A   Clear
11:54 AM 24.1 °F 19.7 °F 14.0 °F 65% 30.25 in 9.0 mi South 3.5 mph - N/A   Clear
12:54 PM 26.1 °F 19.4 °F 12.9 °F 58% 30.23 in 10.0 mi South 5.8 mph - N/A   Clear
1:54 PM 28.0 °F 21.7 °F 15.1 °F 58% 30.22 in 10.0 mi South 5.8 mph - N/A   Clear
2:54 PM 30.0 °F 24.1 °F 15.1 °F 54% 30.22 in 10.0 mi South 5.8 mph - N/A   Clear
3:54 PM 28.9 °F 22.8 °F 16.0 °F 58% 30.21 in 10.0 mi South 5.8 mph - N/A   Clear
4:54 PM 24.1 °F 19.7 °F 14.0 °F 65% 30.21 in 10.0 mi East 3.5 mph - N/A   Clear
5:54 PM 21.9 °F - 14.0 °F 72% 30.22 in 10.0 mi Calm Calm - N/A   Clear
6:54 PM 18.0 °F 11.1 °F 12.0 °F 78% 30.24 in 10.0 mi SE 4.6 mph - N/A   Clear
7:54 PM 16.0 °F 7.4 °F 12.0 °F 84% 30.24 in 8.0 mi ESE 5.8 mph - N/A   Clear
8:54 PM 17.1 °F 7.6 °F 12.0 °F 81% 30.23 in 7.0 mi East 6.9 mph - N/A   Clear
9:54 PM 19.0 °F 12.3 °F 15.1 °F 85% 30.25 in 8.0 mi ENE 4.6 mph - N/A   Clear
10:54 PM 18.0 °F 11.1 °F 12.9 °F 81% 30.25 in 8.0 mi East 4.6 mph - N/A   Clear
11:54 PM 18.0 °F 12.7 °F 12.9 °F 81% 30.24 in 8.0 mi East 3.5 mph - N/A   Clear